STARLINK-6222, 56481

Orbit data source: Space-Track

STARLINK-6222, 56481 is a payload satellite owned by SpaceX/Seattle (US) in LEO that was launched on Wed, 10 May 2023 UTC via an FALCON 9 launch vehicle from the Air Force Western Test Range (AFWTR). Payload-class satellites include a variety of spacecraft equipped with specific instruments for various scientific and technological missions. These include communications satellites like Starlink; space stations such as the ISS; scientific satellites like the Hubble; Earth observation satellites from companies like Planet Labs, Umbra, and HawkEye 360; GPS; miniature CubeSats for education and research; and military/defense satellites.

Loading next visibility...
Identifier
56481, 2023-064AK
Orbit
LEO
Country
Flag of USUS
Related business
Manufacturer
SpaceX/Seattle
Mission
Operational Commercial Communications
Bus & Motor
STARLINK, Unknown motor
Mass
305 kg wet, ~290 kg dry
Launch date (UTC)
2023-05-10 (3 years ago)
Launch vehicle
FALCON 9
Launch site
Air Force Western Test Range (AFWTR)
Object type
Payload
Rocket body
Debris
Shape & HBR
Box + 1 Pan, 10.1 m
Radar Cross Section
11.087 m², Large (>1 m²)

Expand to show TLE details & history
Last TLE update: 2 days ago

TLE from 2 days ago
0 STARLINK-6222
1 56481U 23064AK  26171.44514409  .00000098  00000-0  16013-4 0  9999
2 56481  69.9990 225.2638 0003385 269.7098  90.3674 14.98328725171137
Epoch: 2026-06-20T10:41Z
TLE epoch observation values (Epoch: 2026-06-20T10:41:00.449Z)
Latitude
0.00006°
Longitude
156.35228°
Altitude
574.499 km
Speed
7.574 km/s
True Right ascension
15h 01m 03s
True Declination
0° 00' 00"
Sunlit
Object was in full shadow at epoch
Visualization orbit readout
Latitude
Unknown
Longitude
Unknown
Altitude
Unknown
Speed
Unknown
Apparent Right ascension
Unknown
Apparent Declination
Unknown
Sunlit
N/A
Visualization observer readout
Local Sidereal Time
21:32:17
Azimuth
Unknown
Elevation
Unknown
Doppler factor
Unknown
Orbital elements
Apogee altitude
572.36 km
Perigee altitude
567.656 km
Semi-major axis
6,948.145 km
Eccentricity
0.00034
Inclination
69.999°
RAAN
225.2638°
Arg. of periapsis
269.7098°
True anomaly
90.40619°
Mean anomaly
90.3674°
Eccentric anomaly
90.38679°
Mean motion
3.74748 °/min
Orbital period
96.06 mins
BSTAR
0.000016013
Loading maneuver chart data...
Computing Atmospheric mass density...
Loading historical data...
Loading historical data...
Loading historical data...
Loading historical data...
Loading historical data...
Loading historical data...
Loading historical data...

Documentation

Showing up to 5 results
|